This demonstration page uses our WeatherBlox Daily Observations layout. Learn more.

Hourly Observations for February 13, 2017

Temp ( °F °C ) Dew Point ( °F °C ) Humidity (%) Winds ( mph kmh ) Pressure ( in mb ) Visibility ( mi km ) Precip ( " mm )
12:15 am 00:15 Clear 30 -1 12 -11.2 46 46 SSW 6 9 30.48 1032 10 16.0934 0 0
12:35 am 00:35 Clear 30 -0.9 11 -11.5 45 45 SSW 5 7 30.48 1032 10 16.0934 0 0
12:55 am 00:55 Clear 30 -1.1 11 -11.5 46 46 SSW 6 9 30.48 1032 10 16.0934 0 0
1:15 am 01:15 Clear 30 -1.3 12 -11.2 47 47 SSW 6 9 30.48 1032 10 16.0934 0 0
1:35 am 01:35 Clear 30 -1 11 -11.5 45 45 SSW 6 9 30.48 1032 10 16.0934 0 0
1:55 am 01:55 Clear 30 -1 12 -11 47 47 SSW 5 7 30.48 1032 10 16.0934 0 0
2:15 am 02:15 Clear 32 0.1 13 -10.7 44 44 S 5 7 30.42 1030 10 16.0934 0 0
2:35 am 02:35 Partly Cloudy 31 -0.5 15 -9.5 51 51 S 3 6 30.42 1030 10 16.0934 0 0
2:55 am 02:55 Mostly Cloudy 32 0 16 -9.1 51 51 S 5 7 30.42 1030 10 16.0934 0 0
3:15 am 03:15 Cloudy 32 0.1 15 -9.5 49 49 S 5 7 30.42 1030 10 16.0934 0 0
3:35 am 03:35 Mostly Cloudy 32 0.1 16 -9 51 51 S 5 7 30.39 1029 10 16.0934 0 0
3:55 am 03:55 Clear 33 0.6 14 -9.8 46 46 S 7 11 30.39 1029 10 16.0934 0 0
4:15 am 04:15 Mostly Cloudy 32 0.2 15 -9.6 48 48 S 3 6 30.39 1029 10 16.0934 0 0
4:35 am 04:35 Mostly Cloudy 32 0 16 -9 51 51 Calm 30.39 1029 10 16.0934 0 0
4:55 am 04:55 Mostly Cloudy 32 0 15 -9.6 49 49 S 3 6 30.39 1029 10 16.0934 0 0
5:15 am 05:15 Partly Cloudy 32 -0.1 15 -9.6 49 49 SSW 3 6 30.39 1029 10 16.0934 0 0
5:35 am 05:35 Mostly Cloudy 31 -0.5 15 -9.2 52 52 S 3 6 30.39 1029 10 16.0934 0 0
5:55 am 05:55 Cloudy 31 -0.8 17 -8.6 56 56 S 3 6 30.39 1029 10 16.0934 0 0
6:15 am 06:15 Cloudy 30 -1 19 -7.5 62 62 SSE 3 6 30.42 1030 10 16.0934 0 0
6:35 am 06:35 Partly Cloudy 29 -1.6 18 -7.6 64 64 SE 5 7 30.42 1030 10 16.0934 0 0
6:55 am 06:55 Mostly Cloudy 28 -2.3 18 -7.6 67 67 SSE 5 7 30.39 1029 10 16.0934 0 0
7:15 am 07:15 Cloudy 29 -1.6 19 -7.5 64 64 SE 3 6 30.39 1029 10 16.0934 0 0
7:35 am 07:35 Cloudy 28 -2 19 -7.5 66 66 SSE 5 7 30.39 1029 10 16.0934 0 0
7:55 am 07:55 Partly Cloudy 28 -2 18 -7.9 64 64 S 5 7 30.39 1029 10 16.0934 0 0
8:15 am 08:15 Sunny 30 -1.1 17 -8.4 58 58 S 3 6 30.36 1028 10 16.0934 0 0
8:35 am 08:35 Sunny 30 -0.9 18 -7.6 61 61 S 5 7 30.36 1028 10 16.0934 0 0
8:55 am 08:55 Sunny 32 0 19 -7.5 57 57 S 7 11 30.36 1028 10 16.0934 0 0
9:15 am 09:15 Sunny 35 1.6 17 -8.1 49 49 SSW 8 13 30.36 1028 10 16.0934 0 0
9:35 am 09:35 Sunny 38 3.5 18 -7.7 44 44 S 12 19 30.3 1026 10 16.0934 0 0
9:55 am 09:55 Sunny 40 4.5 18 -7.7 41 41 SSW 14 22 30.3 1026 10 16.0934 0 0
10:15 am 10:15 Sunny 40 4.7 19 -7.2 42 42 SW 17 28 30.3 1026 10 16.0934 0 0
10:35 am 10:35 Sunny 42 5.6 20 -6.6 41 41 SW 17 28 30.27 1025 10 16.0934 0 0
10:55 am 10:55 Sunny 43 5.9 21 -6 42 42 SW 15 24 30.27 1025 10 16.0934 0 0
11:15 am 11:15 Sunny 43 6.2 23 -5.2 44 44 SW 17 28 30.24 1024 10 16.0934 0 0
11:35 am 11:35 Sunny 44 6.7 23 -4.8 44 44 SW 15 24 30.24 1024 10 16.0934 0 0
11:55 am 11:55 Sunny 45 7.2 24 -4.3 44 44 SW 17 28 30.24 1024 10 16.0934 0 0
1:15 pm 13:15 Sunny 45 7 27 -3 49 49 SW 13 20 30.18 1022 10 16.0934 0 0
1:35 pm 13:35 Sunny 46 7.5 28 -2.3 50 50 SW 14 22 30.15 1021 10 16.0934 0 0
1:55 pm 13:55 Sunny 46 8 28 -2 50 50 WSW 12 19 30.15 1021 10 16.0934 0 0
2:35 pm 14:35 Sunny 47 8.1 29 -1.8 50 50 SW 15 24 30.15 1021 10 16.0934 0 0
2:55 pm 14:55 Sunny 47 8.2 29 -1.9 49 49 SW 13 20 30.15 1021 10 16.0934 0 0
3:15 pm 15:15 Sunny 46 7.9 28 -2 50 50 WSW 10 17 30.15 1021 10 16.0934 0 0
3:35 pm 15:35 Sunny 46 8 28 -2 50 50 WSW 8 13 30.15 1021 10 16.0934 0 0
3:55 pm 15:55 Sunny 47 8.3 29 -1.9 49 49 WSW 7 11 30.12 1020 10 16.0934 0 0
4:15 pm 16:15 Sunny 47 8.1 29 -1.9 50 50 WSW 6 9 30.12 1020 10 16.0934 0 0
4:35 pm 16:35 Sunny 46 8 28 -2 50 50 SW 5 7 30.12 1020 10 16.0934 0 0
4:55 pm 16:55 Sunny 46 7.8 28 -2 50 50 SW 5 7 30.12 1020 10 16.0934 0 0
5:15 pm 17:15 Sunny 46 8 28 -2.1 49 49 SW 5 7 30.12 1020 10 16.0934 0 0
5:35 pm 17:35 Sunny 45 7.2 28 -2.1 52 52 SW 3 6 30.12 1020 10 16.0934 0 0
5:55 pm 17:55 Sunny 44 6.5 28 -2.3 54 54 SSW 3 6 30.15 1021 10 16.0934 0 0
6:15 pm 18:15 Clear 42 5.4 28 -2.5 57 57 SSW 3 6 30.15 1021 10 16.0934 0 0
6:35 pm 18:35 Clear 40 4.4 27 -2.7 60 60 Calm 30.15 1021 10 16.0934 0 0
6:55 pm 18:55 Clear 41 4.8 27 -2.7 59 59 Calm 30.15 1021 10 16.0934 0 0
7:15 pm 19:15 Clear 39 3.8 26 -3.1 61 61 Calm 30.21 1023 10 16.0934 0 0
7:35 pm 19:35 Clear 35 1.6 26 -3.4 70 70 W 3 6 30.18 1022 10 16.0934 0 0
7:55 pm 19:55 Clear 32 0.1 25 -4 74 74 WNW 3 6 30.24 1024 10 16.0934 0 0
8:15 pm 20:15 Clear 34 0.9 25 -3.7 72 72 WNW 6 9 30.21 1023 10 16.0934 0 0
8:35 pm 20:35 Clear 32 -0.2 25 -3.9 76 76 WNW 5 7 30.24 1024 10 16.0934 0 0
8:55 pm 20:55 Clear 32 0 25 -4 75 75 WNW 5 7 30.24 1024 10 16.0934 0 0
9:15 pm 21:15 Clear 31 -0.4 24 -4.5 74 74 WNW 5 7 30.24 1024 10 16.0934 0 0
9:35 pm 21:35 Clear 32 0 23 -5 69 69 NW 6 9 30.24 1024 10 16.0934 0 0
9:55 pm 21:55 Clear 32 0.2 23 -5 68 68 NW 7 11 30.21 1023 10 16.0934 0 0
10:15 pm 22:15 Clear 32 0.1 23 -5 69 69 NW 7 11 30.21 1023 10 16.0934 0 0
10:35 pm 22:35 Clear 35 1.6 23 -4.8 63 63 NNW 8 13 30.18 1022 10 16.0934 0 0
10:55 pm 22:55 Clear 35 1.5 23 -5 62 62 NNW 9 15 30.18 1022 10 16.0934 0 0
11:15 pm 23:15 Clear 33 0.8 22 -5.3 64 64 NNW 7 11 30.21 1023 10 16.0934 0 0
11:35 pm 23:35 Clear 33 0.8 22 -5.3 64 64 N 7 11 30.21 1023 10 16.0934 0 0
11:55 pm 23:55 Clear 34 1.2 23 -4.8 65 65 N 7 11 30.21 1023 10 16.0934 0 0

Powered by AerisWeather